Weather reports worldwide

Advertisment
Milano/Malpensa, Italy (16066): temperature & dewpoint: 10.11.2018 05:00:00 - 16.11.2018 05:00:00 (CET)Milano/Malpensa, Italy (16066): wind speed: 10.11.2018 05:00:00 - 16.11.2018 05:00:00 (CET)Milano/Malpensa, Italy (16066): wind direction: 10.11.2018 05:00:00 - 16.11.2018 05:00:00 (CET)Milano/Malpensa, Italy (16066): reduced air pressure: 10.11.2018 05:00:00 - 16.11.2018 05:00:00 (CET)Milano/Malpensa, Italy (16066): visibility: 10.11.2018 05:00:00 - 16.11.2018 05:00:00 (CET)Milano/Malpensa, Italy (16066): precipitation: 10.11.2018 05:00:00 - 16.11.2018 05:00:00 (CET)
Date & Time tt [°C] td [°C] ff [km/h] ff [kn] dd ppp [hPa] vv [km] rr [mm]
16.11.2018 05:00:00 12,0 11,0 5 3 ESE - 3,0 -
16.11.2018 04:00:00 11,7 11,3 9 5 SE 1024,9 4,0 0,0
16.11.2018 03:00:00 11,0 11,0 2 1 - - 5 -
16.11.2018 02:00:00 11,0 11,0 2 1 NNE - 6 -
16.11.2018 01:00:00 11,8 11,2 2 1 - 1024,5 6 -
16.11.2018 00:00:00 12,0 11,0 4 2 - - 7 -
15.11.2018 23:00:00 12,0 11,0 5 3 ESE - 10 -
15.11.2018 22:00:00 12,0 11,1 13 7 WSW 1024,2 7 0,0
15.11.2018 21:00:00 12,0 11,0 2 1 SE - 10 -
15.11.2018 20:00:00 13,0 11,0 4 2 - - 10 -
15.11.2018 19:00:00 12,5 10,8 8 4 WNW 1024,6 10 -
15.11.2018 18:00:00 13,0 11,0 22 12 WSW - 7 -
15.11.2018 17:00:00 13,0 11,0 8 4 SSW - 5 -
15.11.2018 16:00:00 13,2 10,9 8 4 SSW 1024,8 6 0,0
15.11.2018 15:00:00 13,0 11,0 8 4 SW - 6 -
15.11.2018 14:00:00 13,0 11,0 5 3 - - 6 -
15.11.2018 13:00:00 12,7 11,3 21 11 W 1025,8 5 -
15.11.2018 12:00:00 12,0 11,0 18 10 W - 7 -
15.11.2018 11:00:00 12,0 11,0 4 2 - - 10 -
15.11.2018 10:00:00 11,2 10,1 11 6 N 1026,9 10 0,0
15.11.2018 09:00:00 10,0 10,0 8 4 N - 10 -
15.11.2018 08:00:00 11,0 10,0 4 2 - - 7 -
15.11.2018 07:00:00 10,8 10,3 4 2 WNW 1026,6 3,0 -
15.11.2018 06:00:00 11,0 11,0 4 2 - - 2,5 -
15.11.2018 05:00:00 11,0 11,0 5 3 WNW - 0,7 -
15.11.2018 04:00:00 11,8 11,1 2 1 - 1026,6 4,0 0,0
15.11.2018 03:00:00 12,0 12,0 5 3 ENE - 3,0 -
15.11.2018 02:00:00 12,0 12,0 4 2 NNE - 3,0 -
15.11.2018 01:00:00 12,2 11,8 4 2 NNE 1027,5 2,0 -
15.11.2018 00:00:00 12,0 12,0 5 3 N - 2,0 -
14.11.2018 23:00:00 12,0 12,0 5 3 NNE - 3,0 -
14.11.2018 22:00:00 11,8 11,7 4 2 - 1028,0 1,2 0,0
14.11.2018 21:00:00 12,0 12,0 8 4 SE - 0,7 -
14.11.2018 20:00:00 12,0 12,0 11 6 SW - 0,9 -
14.11.2018 19:00:00 12,0 11,7 15 8 SSE 1027,4 2,5 -
14.11.2018 18:00:00 13,0 12,0 16 9 W - 3,5 -
14.11.2018 17:00:00 13,0 12,0 11 6 W - 3,0 -
14.11.2018 16:00:00 13,3 12,5 11 6 SW 1027,5 3,0 0,0
14.11.2018 15:00:00 15,0 13,0 9 5 SSW - 5 -
14.11.2018 14:00:00 16,0 13,0 5 3 SW - 8 -
14.11.2018 13:00:00 15,2 12,5 5 3 S 1029,0 7 -
14.11.2018 12:00:00 15,0 12,0 8 4 SE - 8 -
14.11.2018 11:00:00 13,0 12,0 4 2 - - 6 -
14.11.2018 10:00:00 11,9 11,9 4 2 - 1030,1 4,0 0,0
14.11.2018 09:00:00 10,0 10,0 4 2 - - 1,5 -
14.11.2018 08:00:00 10,0 10,0 5 3 ENE - 0,5 -
14.11.2018 07:00:00 10,4 10,4 5 3 NE 1028,6 0,6 -
14.11.2018 06:00:00 9,0 9,0 4 2 - - 6 -
14.11.2018 05:00:00 6,0 6,0 8 4 NNE - 6 -
14.11.2018 04:00:00 6,9 6,8 4 2 E 1028,1 6 0,0
14.11.2018 03:00:00 7,0 7,0 9 5 N - 6 -
14.11.2018 02:00:00 8,0 8,0 8 4 N - 5 -
14.11.2018 01:00:00 7,6 7,5 11 6 N 1028,1 4,0 -
14.11.2018 00:00:00 8,0 8,0 5 3 NNE - 4,0 -
13.11.2018 23:00:00 8,0 8,0 5 3 NNE - 5 -
13.11.2018 22:00:00 8,9 8,8 2 1 - 1028,2 8 0,0
13.11.2018 21:00:00 9,0 9,0 5 3 NNE - 8 -
13.11.2018 20:00:00 10,0 10,0 2 1 - - 10 -
13.11.2018 19:00:00 11,3 10,8 2 1 N 1027,7 20 -
13.11.2018 18:00:00 14,0 13,0 5 3 SW - 10 -
13.11.2018 17:00:00 15,0 13,0 8 4 SW - 10 -
13.11.2018 16:00:00 16,4 13,1 13 7 SW 1027,1 10 0,0
13.11.2018 15:00:00 17,0 13,0 5 3 WSW - 10 -
13.11.2018 14:00:00 17,0 13,0 4 2 - - 10 -
13.11.2018 13:00:00 16,2 13,4 4 2 - 1027,6 10 -
13.11.2018 12:00:00 15,0 13,0 5 3 - - 10 -
13.11.2018 11:00:00 14,0 13,0 5 3 NW - 10 -
13.11.2018 10:00:00 12,8 12,7 5 3 N 1028,1 3,0 0,0
13.11.2018 09:00:00 12,0 12,0 5 3 N - 0,7 -
13.11.2018 08:00:00 11,0 11,0 8 4 N - 0,4 -
13.11.2018 07:00:00 11,3 11,1 4 2 N 1027,0 3,5 -
13.11.2018 06:00:00 12,0 12,0 5 3 NW - 6 -
13.11.2018 05:00:00 12,0 12,0 5 3 N - 8 -
13.11.2018 04:00:00 12,8 12,6 2 1 - 1027,0 10 0,0
13.11.2018 03:00:00 13,0 12,0 5 3 N - 9 -
13.11.2018 02:00:00 13,0 12,0 5 3 N - 10 -
13.11.2018 01:00:00 12,7 12,4 5 3 NNE 1027,5 7 -
13.11.2018 00:00:00 13,0 13,0 4 2 W - 7 -
12.11.2018 23:00:00 13,0 13,0 5 3 WNW - 10 -
12.11.2018 22:00:00 13,0 13,0 9 5 W - 10 -
12.11.2018 21:00:00 13,0 13,0 2 1 - - 10 -
12.11.2018 20:00:00 13,0 13,0 8 4 N - 10 -
12.11.2018 19:00:00 13,8 12,3 5 3 NNW 1027,0 10 -
12.11.2018 18:00:00 14,0 13,0 9 5 WNW - 10 -
12.11.2018 17:00:00 14,0 13,0 5 3 WNW - 10 -
12.11.2018 16:00:00 14,6 13,4 5 3 NNW 1026,3 8 0,0
12.11.2018 15:00:00 15,0 14,0 5 3 W - 8 -
12.11.2018 14:00:00 15,0 13,0 2 1 - - 10 -
12.11.2018 13:00:00 14,5 13,4 4 2 - 1026,8 10 -
12.11.2018 12:00:00 14,0 13,0 8 4 NW - 10 -
12.11.2018 11:00:00 14,0 13,0 5 3 N - 8 -
12.11.2018 10:00:00 13,3 12,7 8 4 WNW 1026,7 7 0,0
12.11.2018 09:00:00 13,0 12,0 2 1 - - 10 -
12.11.2018 08:00:00 13,0 12,0 8 4 NNE - 10 -
12.11.2018 07:00:00 12,6 12,3 5 3 N 1025,2 6 -
12.11.2018 06:00:00 12,0 12,0 5 3 NNW - 7 -
12.11.2018 05:00:00 12,0 12,0 4 2 - - 7 -
12.11.2018 04:00:00 12,5 12,3 4 2 - 1024,7 6 0,0
12.11.2018 03:00:00 12,0 12,0 8 4 N - 4,0 -
12.11.2018 02:00:00 12,0 12,0 5 3 NNE - 3,0 -
12.11.2018 01:00:00 12,3 12,2 5 3 NNE 1024,7 2,5 -
12.11.2018 00:00:00 12,0 12,0 8 4 NNE - 2,0 -
11.11.2018 23:00:00 12,0 12,0 4 2 NNE - 2,0 -
11.11.2018 22:00:00 12,5 12,4 4 2 NNE 1024,2 2,5 0,0
11.11.2018 21:00:00 13,0 12,0 4 2 NNE - 2,5 -
11.11.2018 20:00:00 13,0 12,0 2 1 NNE - 2,0 -
11.11.2018 19:00:00 12,6 12,4 2 1 E 1023,2 3,0 -
11.11.2018 18:00:00 13,0 12,0 8 4 E - 3,0 -
11.11.2018 17:00:00 13,0 12,0 4 2 - - 4,0 -
11.11.2018 16:00:00 12,7 12,2 8 4 ESE 1021,8 3,0 0,0
11.11.2018 15:00:00 13,0 12,0 9 5 ESE - 3,0 -
11.11.2018 14:00:00 13,0 12,0 15 8 SE - 3,5 -
11.11.2018 13:00:00 12,7 12,1 13 7 SE 1020,9 1,5 -
11.11.2018 12:00:00 13,0 12,0 13 7 ESE - 3,5 -
11.11.2018 11:00:00 13,0 12,0 13 7 ESE - 3,5 -
11.11.2018 10:00:00 12,4 11,9 13 7 ESE 1019,8 3,0 0,0
11.11.2018 09:00:00 12,0 12,0 11 6 ESE - 2,0 -
11.11.2018 08:00:00 12,0 11,0 11 6 ESE - 2,0 -
11.11.2018 07:00:00 11,8 11,3 11 6 ESE 1017,7 4,0 -
11.11.2018 06:00:00 12,0 11,0 5 3 ESE - 4,0 -
11.11.2018 05:00:00 12,0 11,0 5 3 E - 3,5 -
11.11.2018 04:00:00 11,7 11,3 8 4 ESE 1016,9 5 0,0
11.11.2018 03:00:00 12,0 11,0 8 4 - - 4,0 -
11.11.2018 02:00:00 11,0 11,0 11 6 SSE - 4,0 -
11.11.2018 01:00:00 11,4 11,0 11 6 ESE 1016,3 4,0 -
11.11.2018 00:00:00 12,0 11,0 11 6 ESE - 5 -
10.11.2018 23:00:00 12,0 11,0 8 4 SE - 6 -
10.11.2018 22:00:00 11,8 11,0 11 6 ESE 1016,5 4,0 0,0
10.11.2018 21:00:00 12,0 12,0 9 5 ESE - 3,5 -
10.11.2018 20:00:00 12,0 12,0 13 7 ESE - 2,5 -
10.11.2018 19:00:00 12,3 11,7 8 4 ESE 1015,8 3,0 -
10.11.2018 18:00:00 12,0 12,0 8 4 SE - 2,0 -
10.11.2018 17:00:00 12,0 12,0 9 5 ESE - 2,0 -
10.11.2018 16:00:00 12,6 11,9 8 4 ESE 1015,6 3,0 0,0
10.11.2018 15:00:00 13,0 12,0 11 6 ESE - 2,5 -
10.11.2018 14:00:00 13,0 12,0 13 7 ESE - 2,5 -
10.11.2018 13:00:00 12,5 12,0 9 5 SE 1016,2 2,0 -
10.11.2018 12:00:00 12,0 12,0 13 7 SE - 2,0 -
10.11.2018 11:00:00 13,0 12,0 11 6 SE - 1,5 -
10.11.2018 10:00:00 12,3 12,2 11 6 SE 1017,0 0,8 0,0
10.11.2018 09:00:00 12,0 12,0 9 5 SE - 2,5 -
10.11.2018 08:00:00 12,0 12,0 8 4 ESE - 2,5 -
10.11.2018 07:00:00 12,3 12,1 8 4 E 1016,5 3,5 -
10.11.2018 06:00:00 12,0 12,0 5 3 E - 6 -
10.11.2018 05:00:00 12,0 12,0 4 2 NE - 4,5 -

tt = temperature
td = dewpoint
ff = wind speed
dd = wind direction
ppp = reduced air pressure
vv = visibility
rr = precipitation

Next stations